Temp
-5 -5 -5 -5 -5 -5 -5 -5 -5 -5 -5 -5 -5 -5 -5 -6 -6 -6 -6 -6 -6 -6 -6 -6 -6 -6 -6 -7 -7 -7 -7 -7 -7 -7 -7 -7 -7 -7 -7 -7 -7 -7
-5 -5 -5 -5 -5 -5 -6 -6 -5 -5 -5 -5 -5 -5 -6 -6 -6 -6 -6 -6 -6 -6 -6 -6 -6 -6 -6 -6 -7 -7 -7 -7 -7 -7 -7 -7 -7 -7 -7 -7 -7 -7
-5 -5 -5 -5 -5 -5 -6 -6 -5 -5 -5 -5 -5 -6 -6 -6 -6 -6 -6 -6 -6 -6 -6 -6 -6 -6 -6 -6 -7 -7 -7 -7 -7 -7 -7 -7 -7 -7 -7 -8 -8 -7
-5 -5 -5 -5 -5 -5 -5 -5 -5 -5 -5 -5 -5 -6 -6 -6 -6 -6 -6 -6 -6 -6 -6 -6 -6 -6 -6 -6 -7 -7 -7 -7 -7 -7 -7 -7 -7 -7 -7 -8 -8 -8
-5 -5 -5 -5 -5 -5 -5 -5 -5 -5 -5 -5 -5 -6 -6 -6 -6 -6 -6 -6 -6 -6 -6 -6 -6 -6 -6 -6 -6 -7 -7 -7 -7 -7 -7 -7 -7 -7 -7 -7 -7 -8
-5 -5 -5 -5 -5 -5 -5 -5 -5 -5 -5 -5 -5 -5 -6 -6 -6 -6 -6 -6 -6 -6 -6 -6 -6 -6 -6 -6 -6 -6 -6 -7 -7 -7 -7 -7 -7 -7 -7 -7 -7 -7
-6 -5 -5 -5 -5 -5 -5 -5 -5 -5 -5 -5 -5 -5 -5 -6 -6 -6 -6 -6 -6 -6 -6 -6 -6 -6 -6 -6 -6 -6 -6 -6 -6 -7 -7 -6 -6 -7 -7 -7 -7 -7
-6 -6 -6 -6 -5 -5 -5 -5 -5 -5 -5 -5 -5 -5 -5 -6 -6 -6 -6 -6 -6 -6 -6 -6 -6 -6 -6 -6 -6 -6 -6 -6 -6 -6 -6 -6 -6 -6 -6 -6 -6 -7
-5 -5 -6 -6 -6 -5 -5 -5 -5 -5 -5 -5 -5 -5 -5 -6 -6 -6 -6 -6 -6 -6 -6 -6 -6 -6 -6 -6 -6 -6 -6 -6 -6 -6 -6 -6 -6 -6 -6 -6 -6 -6
-5 -5 -5 -5 -5 -5 -5 -5 -5 -5 -5 -6 -6 -6 -6 -6 -6 -6 -6 -6 -6 -6 -6 -6 -6 -6 -6 -6 -6 -6 -6 -6 -6 -6 -6 -6 -6 -6 -6 -6 -6 -6
-5 -5 -5 -5 -5 -5 -5 -5 -5 -5 -5 -6 -6 -6 -6 -6 -6 -6 -6 -6 -6 -6 -6 -6 -6 -6 -6 -6 -6 -6 -6 -6 -6 -6 -6 -6 -6 -6 -6 -6 -5 -6
-5 -5 -5 -5 -5 -5 -5 -5 -6 -6 -6 -6 -6 -6 -6 -6 -6 -6 -6 -6 -6 -6 -6 -6 -6 -6 -6 -6 -6 -6 -6 -6 -6 -6 -6 -6 -6 -6 -6 -6 -5 -5
-5 -5 -5 -5 -5 -5 -5 -6 -6 -6 -6 -6 -6 -6 -6 -6 -6 -6 -6 -6 -6 -6 -6 -6 -6 -6 -6 -6 -6 -6 -6 -6 -6 -5 -5 -6 -5 -5 -5 -5 -5 -5
-6 -5 -6 -6 -6 -6 -5 -6 -6 -6 -6 -6 -6 -6 -6 -6 -6 -6 -6 -6 -6 -6 -6 -6 -6 -6 -6 -6 -6 -6 -6 -6 -5 -5 -5 -5 -5 -5 -5 -5 -5 -5
-6 -6 -6 -6 -6 -6 -6 -6 -6 -6 -6 -6 -6 -6 -6 -6 -6 -6 -6 -6 -6 -6 -6 -6 -6 -6 -6 -6 -6 -6 -6 -6 -5 -5 -5 -5 -5 -5 -5 -5 -5 -5
-6 -6 -6 -6 -6 -6 -6 -6 -6 -6 -6 -6 -6 -6 -6 -6 -6 -6 -6 -6 -6 -6 -6 -6 -6 -6 -6 -6 -6 -6 -6 -6 -6 -5 -5 -5 -5 -5 -5 -5 -5 -5
-6 -6 -6 -6 -6 -6 -6 -6 -6 -6 -6 -6 -6 -6 -6 -6 -6 -6 -6 -6 -6 -6 -6 -6 -5 -5 -6 -6 -6 -6 -6 -6 -6 -6 -6 -5 -5 -5 -5 -5 -5 -5
-6 -6 -6 -6 -6 -6 -6 -6 -6 -6 -6 -6 -6 -6 -6 -6 -6 -6 -6 -6 -6 -6 -6 -6 -6 -6 -6 -6 -6 -6 -6 -6 -6 -6 -6 -6 -6 -5 -5 -5 -5 -5
-7 -7 -7 -7 -6 -6 -6 -6 -6 -6 -6 -6 -6 -5 -5 -5 -6 -6 -6 -6 -6 -6 -6 -6 -6 -6 -6 -6 -6 -6 -6 -6 -6 -6 -6 -6 -6 -6 -6 -5 -5 -5
-7 -7 -7 -7 -7 -7 -7 -6 -6 -6 -6 -6 -6 -6 -6 -6 -6 -6 -6 -6 -6 -6 -6 -6 -6 -6 -6 -6 -6 -6 -6 -6 -6 -6 -6 -6 -6 -6 -6 -6 -5 -5
-7 -7 -7 -7 -7 -7 -7 -7 -7 -7 -7 -7 -6 -6 -6 -6 -6 -6 -6 -6 -6 -6 -6 -6 -6 -6 -6 -6 -6 -6 -6 -6 -6 -6 -6 -6 -6 -6 -6 -6 -6 -5
-7 -7 -7 -7 -7 -7 -7 -7 -7 -7 -7 -7 -7 -7 -6 -6 -6 -6 -6 -6 -6 -6 -6 -6 -6 -6 -6 -6 -6 -6 -6 -6 -6 -6 -6 -6 -6 -6 -6 -6 -6 -6
-7 -7 -7 -7 -7 -7 -7 -7 -7 -7 -7 -7 -7 -7 -7 -7 -7 -6 -7 -6 -6 -6 -6 -6 -7 -6 -6 -6 -6 -6 -6 -6 -6 -6 -6 -6 -6 -6 -6 -6 -6 -6
-8 -7 -7 -7 -7 -7 -7 -7 -7 -7 -7 -7 -7 -7 -7 -7 -7 -6 -6 -6 -7 -6 -6 -6 -7 -6 -6 -7 -7 -6 -6 -6 -6 -6 -6 -6 -6 -6 -6 -6 -6 -6
-8 -8 -7 -8 -8 -8 -7 -7 -7 -7 -7 -7 -7 -7 -7 -7 -6 -6 -6 -6 -6 -7 -7 -7 -7 -7 -7 -7 -7 -7 -7 -7 -7 -6 -6 -7 -6 -6 -6 -6 -6 -6
-8 -8 -8 -8 -8 -8 -8 -8 -8 -7 -7 -7 -7 -7 -7 -7 -7 -7 -7 -6 -6 -6 -7 -7 -7 -7 -7 -7 -7 -7 -7 -7 -7 -7 -7 -7 -6 -6 -6 -6 -6 -6
Height
5961 5962 5962 5963 5964 5965 5966 5967 5968 5969 5970 5971 5972 5973 5974 5975 5975 5976 5976 5977 5977 5978 5978 5979 5979 5979 5980 5980 5980 5980 5981 5981 5981 5981 5981 5981 5982 5982 5982 5982 5982 5982
5960 5961 5962 5963 5964 5965 5965 5967 5968 5969 5969 5970 5972 5973 5974 5974 5975 5975 5976 5976 5977 5978 5978 5979 5979 5980 5980 5980 5981 5981 5981 5981 5981 5982 5982 5982 5982 5982 5982 5983 5983 5983
5960 5961 5962 5963 5964 5964 5965 5966 5967 5968 5969 5970 5971 5972 5973 5974 5975 5975 5976 5976 5977 5977 5978 5978 5979 5979 5980 5980 5981 5981 5981 5981 5982 5982 5982 5982 5982 5982 5983 5983 5983 5983
5959 5960 5961 5962 5963 5964 5965 5966 5967 5968 5969 5970 5971 5972 5972 5973 5974 5974 5975 5976 5976 5977 5977 5978 5978 5979 5979 5980 5980 5981 5981 5981 5982 5982 5982 5982 5982 5982 5982 5982 5983 5983
5958 5959 5960 5961 5962 5963 5964 5965 5967 5968 5969 5970 5970 5971 5971 5972 5973 5973 5974 5974 5975 5976 5976 5977 5977 5978 5978 5979 5980 5980 5981 5981 5981 5981 5981 5981 5982 5982 5982 5982 5982 5982
5956 5958 5959 5960 5961 5962 5963 5964 5966 5967 5968 5969 5970 5970 5970 5971 5972 5972 5973 5973 5974 5974 5975 5975 5976 5977 5977 5978 5978 5979 5979 5980 5980 5980 5980 5981 5981 5981 5981 5981 5981 5981
5955 5956 5958 5959 5960 5961 5962 5963 5964 5965 5966 5968 5969 5969 5970 5970 5971 5971 5972 5972 5973 5973 5974 5974 5975 5976 5976 5977 5977 5978 5978 5979 5979 5979 5979 5980 5980 5980 5980 5980 5980 5980
5954 5955 5956 5957 5959 5960 5961 5962 5963 5964 5965 5966 5967 5968 5969 5969 5970 5971 5971 5972 5972 5972 5973 5973 5974 5975 5975 5976 5976 5977 5977 5978 5978 5978 5978 5979 5979 5979 5979 5979 5980 5980
5952 5954 5955 5956 5957 5958 5959 5960 5962 5963 5964 5965 5966 5967 5968 5968 5969 5970 5971 5971 5971 5972 5972 5972 5973 5973 5974 5975 5975 5976 5976 5977 5977 5977 5978 5978 5978 5978 5978 5979 5979 5979
5952 5953 5954 5955 5955 5956 5958 5959 5960 5961 5962 5963 5964 5965 5966 5967 5968 5969 5970 5970 5971 5971 5972 5972 5972 5972 5973 5973 5974 5975 5975 5976 5976 5977 5977 5977 5977 5977 5977 5978 5978 5978
5951 5952 5953 5953 5954 5955 5956 5957 5959 5960 5961 5962 5963 5964 5965 5966 5966 5967 5968 5969 5969 5970 5970 5971 5971 5971 5972 5972 5972 5973 5974 5974 5975 5975 5976 5976 5976 5976 5976 5976 5977 5977
5949 5950 5951 5952 5953 5954 5955 5956 5957 5958 5959 5960 5961 5962 5963 5964 5964 5965 5966 5967 5967 5968 5969 5969 5970 5970 5970 5971 5971 5971 5972 5973 5973 5974 5975 5975 5975 5975 5975 5975 5975 5976
5947 5948 5949 5950 5951 5952 5953 5954 5955 5956 5957 5958 5959 5960 5961 5962 5963 5963 5964 5965 5965 5966 5967 5967 5968 5968 5969 5969 5970 5970 5971 5971 5972 5972 5973 5974 5974 5974 5974 5974 5974 5974
5944 5945 5947 5948 5949 5950 5951 5952 5953 5954 5954 5955 5956 5958 5959 5960 5961 5961 5962 5963 5963 5964 5965 5965 5966 5966 5967 5968 5968 5969 5970 5970 5970 5971 5971 5972 5972 5972 5973 5973 5973 5973
5942 5943 5944 5945 5946 5947 5949 5950 5951 5952 5952 5953 5954 5955 5956 5957 5958 5959 5960 5960 5961 5962 5962 5963 5964 5964 5965 5966 5967 5968 5968 5969 5969 5969 5969 5969 5969 5970 5970 5971 5971 5971
5939 5941 5942 5943 5944 5945 5946 5947 5948 5949 5950 5951 5952 5953 5954 5955 5956 5956 5957 5958 5959 5960 5960 5961 5962 5962 5963 5964 5965 5966 5966 5967 5968 5968 5968 5967 5967 5967 5968 5969 5969 5970
5936 5937 5939 5940 5941 5942 5943 5944 5945 5946 5948 5949 5950 5950 5951 5952 5953 5954 5955 5956 5957 5958 5959 5959 5960 5961 5961 5961 5962 5963 5964 5965 5965 5966 5966 5966 5966 5965 5966 5966 5967 5967
5934 5935 5936 5937 5938 5939 5940 5941 5942 5943 5945 5946 5947 5948 5948 5949 5950 5951 5952 5953 5954 5955 5956 5956 5958 5959 5958 5958 5959 5960 5961 5961 5962 5963 5963 5964 5964 5964 5963 5964 5964 5965
5931 5933 5934 5935 5936 5937 5938 5939 5940 5941 5942 5943 5944 5945 5946 5947 5947 5948 5949 5950 5951 5952 5953 5953 5955 5956 5955 5955 5956 5957 5958 5958 5959 5960 5960 5961 5961 5961 5961 5961 5962 5962
5928 5929 5931 5932 5933 5934 5935 5936 5937 5938 5939 5940 5941 5942 5943 5944 5944 5945 5946 5947 5948 5948 5949 5951 5953 5953 5953 5953 5953 5953 5954 5955 5956 5956 5957 5957 5958 5958 5958 5959 5959 5959
5924 5926 5927 5928 5930 5931 5932 5933 5934 5935 5936 5937 5938 5938 5939 5940 5941 5941 5943 5944 5944 5944 5945 5948 5950 5950 5950 5950 5950 5949 5950 5951 5952 5953 5953 5953 5954 5954 5955 5955 5956 5956
5920 5922 5923 5925 5926 5928 5929 5930 5931 5931 5933 5933 5934 5935 5935 5936 5936 5937 5939 5940 5940 5940 5942 5944 5946 5946 5946 5947 5946 5946 5946 5947 5948 5949 5949 5950 5951 5951 5951 5952 5952 5952
5917 5918 5920 5922 5923 5925 5926 5926 5927 5928 5929 5930 5931 5931 5932 5932 5932 5933 5934 5935 5936 5937 5939 5940 5941 5941 5942 5943 5943 5943 5943 5944 5945 5945 5946 5947 5948 5948 5948 5948 5948 5949
5913 5915 5917 5918 5920 5921 5922 5923 5924 5925 5926 5927 5928 5928 5928 5928 5928 5928 5929 5930 5932 5933 5935 5936 5937 5937 5938 5938 5939 5939 5940 5940 5941 5942 5943 5943 5944 5945 5945 5944 5944 5945
5909 5911 5913 5914 5916 5917 5919 5920 5921 5922 5923 5923 5924 5925 5925 5925 5924 5924 5925 5926 5927 5929 5930 5932 5933 5933 5934 5934 5934 5935 5935 5936 5937 5938 5939 5939 5940 5941 5941 5939 5940 5942
5905 5907 5909 5911 5912 5914 5915 5916 5917 5918 5919 5920 5921 5921 5922 5922 5922 5921 5921 5922 5924 5926 5926 5927 5928 5929 5929 5930 5930 5931 5931 5932 5933 5933 5934 5935 5935 5936 5936 5935 5936 5938
Wind_Speed
18 17 17 16 15 14 14 14 13 13 12 12 12 11 11 10 9 8 7 7 6 5 4 4 3 3 2 2 1 1 0 1 1 0 0 1 1 2 3 4 5 6
18 18 18 17 16 16 15 15 15 14 14 13 12 11 11 10 9 8 7 7 6 5 4 4 3 3 2 2 2 2 2 3 3 3 2 2 3 3 3 4 5 6
19 19 19 18 17 17 16 16 16 15 15 14 13 12 11 10 9 8 7 7 6 5 5 4 4 3 3 3 3 4 4 4 5 5 5 5 5 5 5 6 6 7
18 19 19 18 18 17 17 16 16 16 15 14 14 13 11 10 9 8 8 7 6 6 6 5 5 5 5 5 5 6 6 6 6 6 6 7 7 7 7 7 8 9
18 18 18 19 19 18 17 17 16 15 15 15 14 14 12 11 10 9 8 8 7 7 7 7 7 7 7 7 7 8 8 8 8 8 8 8 8 8 8 8 9 10
18 17 17 18 18 18 18 17 17 16 15 15 15 14 13 11 11 10 9 9 9 8 8 8 8 9 9 9 9 9 9 9 9 9 9 8 8 9 9 9 9 10
19 18 17 17 18 18 18 18 18 17 16 15 15 14 12 11 11 11 10 10 10 10 10 10 10 10 10 10 10 9 9 9 9 9 9 9 8 8 9 9 9 9
21 20 19 18 18 18 18 18 18 17 17 16 15 14 13 12 11 11 11 11 11 11 10 10 10 11 10 10 10 10 10 9 9 9 9 9 8 8 9 9 9 9
23 22 21 20 20 20 19 19 18 18 17 16 15 14 13 12 12 12 12 12 12 11 11 11 11 11 11 11 11 11 10 10 10 10 10 9 9 9 9 9 9 9
24 24 24 23 23 22 21 20 19 18 18 17 16 16 15 14 14 14 13 13 13 12 12 12 12 11 11 11 11 11 11 11 11 11 11 10 10 10 10 10 10 9
23 24 24 24 24 23 22 21 20 19 19 18 18 17 16 16 16 15 15 14 13 13 12 12 12 12 12 12 13 13 12 12 11 11 11 11 11 11 11 11 11 10
24 24 24 24 24 24 23 22 21 21 20 20 20 19 19 18 18 17 17 16 15 14 14 14 14 14 14 14 14 14 13 12 12 11 11 11 12 12 12 12 12 12
24 25 25 25 25 25 24 23 22 22 22 21 21 20 20 20 20 19 19 18 17 16 16 15 15 16 16 16 16 15 14 13 12 11 11 11 12 13 13 13 13 13
25 25 25 26 26 26 25 24 24 24 23 23 23 22 22 21 21 21 20 20 20 19 18 18 18 18 17 17 17 16 16 15 13 12 11 11 12 12 14 14 15 15
25 26 26 26 26 26 26 26 26 25 25 24 24 24 24 23 23 23 23 22 22 22 21 20 20 19 19 18 17 17 17 17 16 14 13 12 12 12 14 15 15 15
26 26 27 27 27 26 26 27 27 26 26 26 26 26 25 25 25 25 25 25 25 25 24 23 22 21 20 19 19 19 18 18 17 16 15 14 13 13 13 14 14 15
26 26 27 27 28 28 28 28 27 27 27 27 27 27 27 27 27 27 27 27 27 27 27 26 25 23 22 22 21 20 20 19 18 18 17 16 16 15 14 14 14 14
27 27 28 28 28 29 29 29 29 28 28 28 28 28 28 28 28 28 28 28 28 28 28 28 27 25 25 24 23 22 22 21 20 19 19 18 18 17 16 15 14 14
29 29 29 29 29 30 30 30 30 30 29 29 29 29 30 30 30 30 30 29 29 29 29 29 27 26 27 26 24 24 24 23 23 22 21 20 20 19 19 18 17 16
32 31 30 30 30 30 30 30 31 31 31 31 31 32 32 33 33 32 31 31 30 30 30 29 27 27 28 28 26 26 25 25 24 24 23 23 22 22 21 20 20 19
34 33 30 29 30 29 28 27 27 28 29 29 30 31 33 34 36 36 35 33 33 32 31 28 27 28 29 29 28 27 26 25 25 25 25 25 24 24 24 23 22 22
33 32 30 28 28 26 25 24 24 24 25 26 27 28 30 32 35 38 38 38 37 36 34 31 30 31 31 31 30 29 28 27 26 26 26 26 26 26 26 26 25 25
34 32 29 28 26 24 23 23 23 23 23 24 25 26 27 29 32 35 39 40 40 39 37 35 34 34 34 33 33 32 30 29 28 28 28 28 28 28 29 29 29 28
33 31 29 28 26 24 23 23 22 22 23 23 23 22 23 24 26 30 35 38 40 40 38 37 36 36 36 36 35 35 33 32 31 31 30 30 30 30 31 32 32 31
30 29 29 28 26 26 26 25 23 23 23 23 22 21 21 20 20 21 25 30 35 39 39 37 36 36 37 37 37 36 35 34 34 34 33 33 34 34 34 35 35 33
28 28 28 27 26 26 26 26 25 25 24 24 23 23 24 23 19 16 16 20 26 32 36 37 37 38 38 38 38 38 36 35 34 34 34 35 36 36 36 37 36 35
Wind_Direction
198 198 197 196 194 193 195 198 199 199 200 201 202 203 203 203 199 195 194 195 198 198 193 188 187 191 195 198 209 243 300 321 303 249 198 213 224 232 238 241 239 238
201 201 200 198 197 196 196 199 201 200 199 200 200 200 201 201 199 197 194 194 196 200 203 202 205 214 226 242 255 272 282 283 284 280 274 266 259 256 256 255 253 249
203 204 202 200 199 199 199 200 202 201 200 199 199 199 200 201 202 203 202 202 204 208 216 220 226 236 247 257 264 270 272 274 276 278 276 274 268 261 259 258 259 259
206 205 204 203 201 201 201 201 203 203 202 201 201 201 202 203 207 211 213 216 218 222 229 233 238 245 253 258 261 262 264 265 266 269 270 271 271 269 266 263 264 264
210 208 207 206 205 204 205 205 205 206 205 205 205 204 204 207 211 216 220 225 230 234 238 241 244 248 250 253 255 257 259 260 261 263 265 265 266 268 267 265 265 265
213 212 211 211 211 209 209 209 209 210 211 212 213 211 209 211 217 221 223 226 231 235 240 242 244 246 246 248 249 252 255 258 260 262 261 261 261 263 265 265 264 263
215 216 216 216 217 216 215 215 214 215 216 220 222 222 219 219 223 228 231 231 231 234 238 241 243 244 246 246 247 248 250 253 256 257 259 261 260 262 264 264 265 265
215 216 218 219 220 220 220 220 220 220 220 223 228 231 231 231 232 236 240 242 241 240 241 242 244 246 247 248 247 247 249 250 250 251 253 257 259 261 264 266 269 271
215 215 217 218 221 222 223 223 224 225 225 227 230 233 236 237 240 245 248 251 251 249 248 247 248 247 246 247 246 246 248 250 250 250 251 253 256 258 261 267 271 273
218 219 219 219 221 223 223 224 226 227 228 230 232 235 237 238 242 247 251 255 256 255 254 252 250 248 245 243 243 244 246 250 252 254 256 257 258 259 260 264 269 272
223 224 225 224 225 225 225 226 228 229 230 232 234 237 239 240 243 246 248 251 253 255 255 254 251 248 244 240 240 241 245 250 256 260 264 266 266 265 262 260 262 266
226 228 229 229 230 230 230 229 230 232 234 235 237 239 241 243 244 245 245 245 247 249 251 252 252 249 245 242 241 243 247 251 258 264 269 272 273 270 266 261 258 258
228 229 231 232 233 233 233 232 232 233 235 237 238 240 242 244 245 245 245 246 246 248 250 251 252 251 250 247 246 248 250 252 257 262 267 272 274 273 270 265 260 255
229 230 231 233 234 236 236 236 235 234 235 236 237 239 240 242 244 245 246 247 248 250 251 253 255 256 256 255 255 255 255 256 256 257 259 263 268 270 270 268 264 259
230 232 233 233 234 236 237 238 238 238 237 237 238 239 240 241 242 245 246 248 249 250 251 253 256 260 263 265 265 264 262 261 260 258 257 257 259 264 268 269 268 266
232 233 235 236 235 235 236 238 239 240 240 241 241 241 242 242 243 244 246 248 250 252 253 253 255 259 263 265 268 269 268 267 266 265 263 261 259 260 264 268 271 272
234 234 236 237 238 238 237 238 239 239 240 241 242 243 244 245 246 247 248 249 252 254 256 257 257 258 259 260 262 265 268 268 268 268 267 266 265 263 262 265 268 271
235 236 237 238 239 240 239 239 239 240 240 241 242 243 244 245 247 248 249 250 251 254 256 258 259 259 259 259 260 262 264 266 267 267 267 267 267 266 265 264 263 265
238 239 239 238 239 241 242 242 241 241 241 242 244 245 246 247 247 248 249 250 251 252 253 255 257 259 259 260 260 261 262 264 266 267 268 268 268 267 267 266 264 262
239 241 241 239 239 241 244 244 244 243 242 243 245 247 249 249 249 249 249 249 250 251 252 254 255 256 258 259 259 259 261 263 265 266 267 268 268 268 268 267 266 265
238 240 242 240 239 241 244 245 244 243 244 246 248 249 250 250 250 249 248 249 250 250 251 254 255 255 256 256 256 257 259 261 263 264 265 267 268 268 268 267 267 266
236 237 237 236 236 238 241 242 242 242 244 247 251 253 253 252 250 249 248 247 248 250 251 253 255 256 256 256 255 255 256 258 260 263 264 265 266 267 268 268 267 266
233 232 231 231 232 235 238 240 241 242 244 246 250 254 257 257 255 253 251 249 248 250 252 253 254 256 256 256 256 256 256 257 259 261 264 265 266 267 268 269 268 267
229 228 227 228 230 234 236 239 241 243 244 245 248 252 258 260 259 256 254 253 251 250 250 252 254 255 255 256 257 258 258 258 259 260 261 263 264 265 266 266 267 268
227 228 228 230 233 237 239 242 244 245 246 247 249 253 256 259 259 256 254 254 252 250 250 251 253 254 255 256 257 258 258 259 260 260 258 258 259 259 260 262 264 266
231 232 232 232 235 239 241 243 245 246 248 251 254 255 255 255 257 259 259 256 253 250 249 250 252 253 254 255 256 257 258 259 260 259 258 257 257 257 258 260 262 263